Terminal Aerodrome Forecast
Issued by NWS Midland/Odessa, TX

Home | Current Version | Previous Version | Text Only | Print | Product List | Glossary On
Versions: 1 2 3 4 5 6 7 8 9 10 11 12 13 14 15 16 17 18 19 20 21 22
000
FTUS44 KMAF 040522
TAFMAF
TAF
KMAF 040522Z 0406/0506 16007KT P6SM FEW130 BKN200
     FM041200 15006KT P6SM SCT020 BKN130
     FM041500 15011KT P6SM SCT040 SCT130=

USA.gov is the U.S. government's official web portal to all federal, state and local government web resources and services.